Details From KMIA - Miami Intl
To MUHA - La Havane Jose Marti Intl
Flight Number -
Tags Generated
Created
Modified
Stats Distance 206 nm / 381 km
Max Altitude 0 ft / 0 m
Waypoints 2
Social Downloads 0
Likes 0
Share VATSIM

Download

Looking for another format? Having issues loading an existing format? Contact us
Advertisement - Login to hide

Notes

Generated

Route

KMIA MUHA

ID Type Via Altitude Latitude Longitude Leg Dist Tot Dist Heading (true) Name
O KMIA APT - 0 ft / 0 m 25.80290˚ -80.30154˚ - 0 nm - -
O MUHA APT - 0 ft / 0 m 22.97863˚ -82.42494˚ 205 nm 205 nm 215° / 214° -

Altitude Profile

Advertisement - Login to hide

Weather


0- 5 10 15 20 25 30 35+ Temperature / ° C

Clouds and Precipitation
Forecast for 2017-12-16 00:00 UTC. Updated an hour ago

Ground ~20,000 ft ~40,000 ft Winds

KMIA

Details ICAO KMIA (MIA)
Name Miami Intl
Region United States
Timezone America/New_York (UTC-5.0)
Stats Elevation 8 ft / 2 m (AMSL)
Location 25.796167° -80.289742°
Runways 4
Magnetic Variation 6.641° W

METAR

KMIA 151953Z 13008KT 10SM FEW035 BKN250 25/15 A3006 RMK AO2 SLP180 T02500150

Decode

TAF

KMIA 151925Z 1519/1624 13005KT P6SM FEW030 BKN250 FM152300 VRB03KT P6SM SCT250 FM161500 06008KT P6SM SCT040

Decode

Departure Runways

ID Width Length Bearing (true) Bearing (mag) Surface Threshold Offset Overrun Length
08L 151 ft / 46 m 8,588 ft / 2,618 m 87.35° 93.99° Asphalt 0 ft / 0 m 1,001 ft / 305 m
08R 200 ft / 61 m 10,490 ft / 3,197 m 87.37° 94.01° Asphalt 0 ft / 0 m 1,001 ft / 305 m
09 151 ft / 46 m 12,981 ft / 3,957 m 87.36° 94.00° Asphalt 1,348 ft / 411 m 1,001 ft / 305 m
12 151 ft / 46 m 9,353 ft / 2,851 m 119.60° 126.24° Asphalt 0 ft / 0 m 1,001 ft / 305 m
26L 200 ft / 61 m 10,490 ft / 3,197 m 267.38° 274.02° Asphalt 0 ft / 0 m 1,001 ft / 305 m
26R 151 ft / 46 m 8,588 ft / 2,618 m 267.37° 274.01° Asphalt 0 ft / 0 m 1,001 ft / 305 m
27 151 ft / 46 m 12,981 ft / 3,957 m 267.38° 274.02° Asphalt 1,270 ft / 387 m 899 ft / 274 m
30 151 ft / 46 m 9,353 ft / 2,851 m 299.61° 306.25° Asphalt 938 ft / 286 m 427 ft / 130 m

MUHA

Details ICAO MUHA (HAV)
Name Havana Jose Marti Intl
Region Cuba
Timezone America/Havana (UTC-5.0)
Stats Elevation 209 ft / 64 m (AMSL)
Location 22.989154° -82.409086°
Runways 1
Magnetic Variation 4.908° W

METAR

MUHA 151955Z VRB03KT 9999 FEW025 27/16 Q1017

Decode

TAF

Not found

Destination Runways

ID Width Length Bearing (true) Bearing (mag) Surface Threshold Offset Overrun Length
06 148 ft / 45 m 13,133 ft / 4,003 m 54.21° 59.12° Asphalt 0 ft / 0 m 476 ft / 145 m
24 148 ft / 45 m 13,133 ft / 4,003 m 234.23° 239.14° Asphalt 0 ft / 0 m 197 ft / 60 m

Approach Navaids

Runway Type Ident Frequency Range Bearing (true) Bearing (mag) Slope Elevation
06 Localiser IHA 110.50 MHz 18 nm / 33 km 54.23° 59.14° - 209 ft / 64 m (AMSL)
06 Glidescope IHA 110.50 MHz 10 nm / 19 km 54.22° 59.13° 3.00° 209 ft / 64 m (AMSL)

Popular Alternatives